www.pogodaiklimat.ru

Погода и климат >> Архив погоды >> Австрия >> Бишофсхофен


ПОГОДА в Бишофсхофене

  • Прогноз погоды в Бишофсхофене
  • Монитор погоды в Бишофсхофене

АРХИВ ПОГОДЫ в Бишофсхофене

Время (UTC), дата Ветер
(напр.,м/с)
 
Видим.   Явления Облачность Т
(С)
Тd
(С)
f
(%)
Тe
(С)
Тes
(С)
Комфортность P
(гПа)
Po
(гПа)
Тmin
(С)
Tmax
(С)
R
(мм)
R24
(мм)
S
(см)
22 11.06 ЮВ 3 н/о н/о +19.8 +11.2 58 +22 +22 комфорт 1010.9 949.0
23 11.06 ЮВ 2 н/о осадки н/о +17.0 +12.3 74 +17 +17 1011.2 948.7 0.1
00 12.06 ЮВ 2
{18}
н/о в посл. час осадки {ливн. осадки} н/о +14.0 +11.7 86 +13 +13 1011.8 948.6 0.3
01 12.06 ЮВ 3 н/о осадки н/о +16.4 +13.9 85 +16 +16 1011.3 948.7 0.7
02 12.06 ЮВ 1 н/о ливневой дождь н/о +13.2 +12.4 95 +13 +13 1011.2 947.9 0.2
03 12.06 ЮВ 2 н/о {ливн. осадки} н/о +13.9 +12.8 93 +13 +13 1010.2 947.1 0.9
04 12.06 Ю 1 н/о н/о +13.4 +12.0 91 +14 +14 1009.8 946.6
05 12.06 ЮВ 1 15 км 8/6 1500 м
[Sc Ac lent]
+14.1 +12.3 89 +14 +15 1009.0 946.0
06 12.06 ЮВ 3 15 км 9/9 1500 м
[Cu Sc]
+16.7 +13.8 83 +16 +17 1008.0 945.7 +12.9 +25.4 1
07 12.06 ЮВ 3 н/о н/о +17.9 +13.9 77 +18 +18 1007.5 945.5
08 12.06 ЮВ 3 н/о н/о +18.6 +13.5 72 +19 +19 1007.0 945.1
09 12.06 ЮВ 3 н/о н/о +21.9 +14.2 62 +25 +25 комфорт 1005.6 944.5
10 12.06 ЮВ 3 н/о н/о +27.0 +8.2 30 +27 +27 жарко 1004.7 944.5
11 12.06 ЮВ 3 н/о н/о +28.2 +7.3 27 +28 +28 жарко 1004.5 944.6
12 12.06 Ю 3 20 км 9/8 1500 м
[Cu Sc Ci fib]
+28.2 +6.9 26 +27 +30 жарко 1005.1 945.1
13 12.06 Ю 5
{13}
н/о н/о +28.7 +7.5 26 +28 +28 жарко 1005.1 945.2
14 12.06 Ю 4
{13}
н/о н/о +29.2 +6.8 24 +28 +28 жарко 1004.9 945.1
15 12.06 СВ 1
{13}
н/о н/о +26.0 +12.9 44 +28 +28 жарко 1006.0 945.7
16 12.06 С 8
{14}
н/о н/о +22.7 +12.9 54 +26 +26 жарко 1007.1 946.0
17 12.06 С 7 н/о н/о +21.2 +12.7 58 +23 +23 комфорт 1007.9 946.5
18 12.06 С 5
{14}
н/о н/о +20.1 +12.7 62 +22 +22 комфорт 1008.6 946.9 +15.8 +29.3
19 12.06 С 5 н/о н/о +19.3 +12.6 65 +20 +20 1009.6 947.7
20 12.06 С 4 н/о н/о +18.6 +12.5 68 +19 +19 1010.5 948.4
21 12.06 С 4 н/о н/о +18.1 +12.5 70 +18 +18 1011.0 948.8
22 12.06 С 4 н/о н/о +17.9 +12.5 71 +18 +18 1011.8 949.5
23 12.06 С 4 н/о н/о +17.0 +12.0 72 +17 +17 1012.0 949.5
00 13.06 С 5 н/о н/о +16.4 +11.7 74 +15 +15 1012.5 949.8
01 13.06 С 3 н/о н/о +15.7 +11.7 77 +15 +15 1012.9 950.0
02 13.06 штиль 0 н/о н/о +12.7 +10.4 86 +12 +12 1013.8 950.2
03 13.06 ЮВ 1 н/о н/о +13.1 +10.8 86 +13 +13 1014.2 950.7
04 13.06 ЮВ 1 н/о н/о +13.0 +10.4 84 +13 +13 1014.9 951.3
05 13.06 штиль 0 10 км 9/9 600 м
[St]
+11.8 +9.7 87 +11 +11 1015.8 951.9
06 13.06 С 1 10 км 10/10 600 м
[St]
+15.5 +11.7 78 +16 +16 1015.3 952.2 +11.7 +20.1
07 13.06 СЗ 3 н/о н/о +16.8 +12.0 73 +17 +17 1014.9 952.1
08 13.06 С 1 н/о н/о +18.5 +12.0 66 +20 +20 1014.0 951.6
09 13.06 С 1 н/о н/о +19.9 +12.4 62 +23 +23 комфорт 1012.7 950.7
10 13.06 С 1 н/о н/о +22.6 +13.5 56 +26 +26 жарко 1011.0 949.7 0.0
11 13.06 С 3 н/о н/о +24.9 +14.0 51 +27 +27 жарко 1009.4 948.7
12 13.06 С 4 40 км 1/1 1500 м
[Cu hum]
+26.7 +12.7 42 +28 +39 жарко 1008.2 947.9
13 13.06 С 2 н/о н/о +27.8 +11.8 37 +29 +29 жарко 1007.7 947.6
14 13.06 С 4 н/о н/о +27.8 +12.9 40 +29 +29 жарко 1007.8 947.7
15 13.06 С 7 н/о н/о +26.3 +13.5 45 +28 +28 жарко 1008.1 947.7
16 13.06 С 5 н/о н/о +25.5 +14.3 50 +28 +28 жарко 1008.8 948.2
17 13.06 С 6 н/о н/о +24.9 +14.1 51 +27 +27 жарко 1009.5 948.8
18 13.06 СВ 6 н/о н/о +23.6 +13.8 54 +26 +26 жарко 1010.7 949.6 +15.2 +29.6 0.0
19 13.06 С 5 н/о н/о +22.7 +13.4 56 +26 +26 жарко 1012.1 950.7
20 13.06 С 4 н/о н/о +21.9 +13.3 58 +25 +25 комфорт 1013.6 952.0
21 13.06 С 4 н/о н/о +21.1 +13.3 61 +23 +23 комфорт 1014.5 952.7
22 13.06 ЮВ 2 н/о н/о +16.9 +12.4 75 +17 +17 1016.5 953.7
23 13.06 ЮВ 2 н/о н/о +17.5 +12.2 71 +18 +18 1017.2 954.4
00 14.06 ЮВ 2 н/о н/о +13.9 +12.0 88 +13 +13 1018.7 955.1
01 14.06 ЮВ 1 н/о н/о +13.1 +11.3 89 +13 +13 1019.1 955.3
02 14.06 ЮВ 1 н/о н/о +12.9 +11.4 91 +13 +13 1019.4 955.5
03 14.06 ЮВ 1 н/о н/о +12.0 +10.6 91 +12 +12 1020.0 955.9
04 14.06 штиль 0 н/о н/о +12.1 +10.9 92 +11 +11 1020.9 956.7
05 14.06 ЮВ 1 30 км ясно +11.7 +10.4 92 +11 +13 1021.0 956.7
06 14.06 ЮВ 1 30 км ясно +14.2 +11.5 84 +15 +19 1020.6 956.9 +11.1 +23.6
07 14.06 ЮВ 2 н/о н/о +15.9 +11.0 73 +16 +16 1019.6 956.3
08 14.06 штиль 0 н/о н/о +19.6 +12.3 63 +21 +21 комфорт 1018.0 955.6
09 14.06 штиль 0 н/о н/о +22.8 +12.9 54 +26 +26 жарко 1016.4 954.8
10 14.06 Ю 1 н/о н/о +25.1 +12.3 45 +27 +27 жарко 1015.3 954.2
11 14.06 ЮВ 1 н/о н/о +27.9 +12.9 40 +30 +30 жарко 1013.7 953.3
12 14.06 ЮВ 3 50 км 4/0
[Ci fib]
+30.5 +9.4 27 +30 +44 жарко 1012.3 952.4
13 14.06 ЮВ 3 н/о н/о +32.4 +7.8 22 +31 +31 жарко 1011.3 951.8
14 14.06 Ю 5 н/о н/о +33.5 +3.2 15 +31 +31 жарко 1010.7 951.3
15 14.06 Ю 4 н/о н/о +33.3 +3.8 16 +31 +31 жарко 1010.4 951.0
16 14.06 Ю 3 н/о н/о +32.9 +4.6 17 +30 +30 жарко 1009.8 950.4
17 14.06 ЮВ 2 н/о н/о +30.2 +7.9 25 +29 +29 жарко 1010.0 950.1
18 14.06 ЮВ 2 н/о н/о +24.4 +11.8 45 +26 +26 жарко 1011.4 950.4 +12.8 +33.8 0.0
19 14.06 ЮВ 2 н/о н/о +24.5 +9.6 39 +25 +25 комфорт 1011.3 950.3
20 14.06 ЮВ 2 н/о н/о +23.3 +9.0 40 +25 +25 комфорт 1012.1 950.8
21 14.06 ЮВ 2 н/о н/о +19.5 +10.8 57 +21 +21 комфорт 1013.2 951.1
22 14.06 ЮВ 2 н/о н/о +20.0 +10.6 55 +22 +22 комфорт 1013.5 951.5
23 14.06 Ю 1 н/о н/о +18.7 +11.1 61 +20 +20 1013.7 951.4
00 15.06 ЮВ 3 н/о н/о +17.4 +10.9 66 +17 +17 1013.8 951.2
01 15.06 ЮВ 1 н/о н/о +16.8 +11.0 69 +18 +18 1013.9 951.2
02 15.06 Ю 1 н/о н/о +16.0 +11.0 72 +17 +17 1013.7 950.8
03 15.06 ЮВ 2 н/о н/о +17.1 +10.8 66 +17 +17 1013.1 950.5
04 15.06 штиль 0 н/о н/о +16.1 +10.7 70 +16 +16 1013.6 950.7
05 15.06 ЮВ 2 н/о н/о +17.6 +11.0 65 +18 +18 1013.4 950.9
06 15.06 ЮВ 2 20 км 9/5 1500 м
[Sc Ac As]
+17.5 +11.9 70 +18 +19 1013.6 951.1 +14.7 +26.6
07 15.06 ЮВ 1 н/о н/о +16.8 +11.9 73 +18 +18 1013.6 950.9
08 15.06 ЮВ 2 н/о н/о +17.3 +12.7 74 +18 +18 1013.8 951.2
09 15.06 ЮВ 2 н/о н/о +17.8 +12.9 73 +18 +18 1013.6 951.1
10 15.06 С 2 н/о н/о +24.5 +15.0 55 +27 +27 жарко 1011.2 950.3
11 15.06 С 2 н/о н/о +29.2 +9.4 29 +29 +29 жарко 1009.6 949.6
12 15.06 С 7 30 км 6/6 1500 м
[Cu Sc]
+28.8 +13.4 39 +30 +32 жарко 1009.2 949.2
13 15.06 С 8
{14}
н/о н/о +26.8 +13.2 43 +29 +29 жарко 1009.6 949.2
14 15.06 С 8
{16}
н/о н/о +26.7 +13.8 45 +29 +29 жарко 1009.9 949.5
15 15.06 С 8
{16}
н/о н/о +25.1 +14.1 50 +27 +27 жарко 1010.4 949.6
16 15.06 С 8
{14}
н/о н/о +25.5 +14.4 50 +28 +28 жарко 1010.4 949.7
17 15.06 С 7 н/о н/о +23.5 +14.1 56 +26 +26 жарко 1011.4 950.3 0.0
18 15.06 СВ 5
{16}
н/о н/о +23.0 +12.9 53 +26 +26 жарко 1012.1 950.8 +15.9 +30.5 0.0
19 15.06 С 3 н/о н/о +22.7 +12.4 52 +25 +25 комфорт 1012.7 951.3
20 15.06 штиль 0 н/о н/о +20.2 +13.2 64 +22 +22 комфорт 1013.4 951.5
21 15.06 ЮВ 1 н/о н/о +19.5 +13.5 68 +22 +22 комфорт 1013.6 951.5
22 15.06 ЮВ 1 н/о н/о +16.1 +12.7 80 +17 +17 1014.3 951.4
23 15.06 С 1 н/о н/о +16.8 +12.5 76 +18 +18 1014.6 951.9
00 16.06 ЮВ 1 н/о н/о +14.9 +12.5 86 +15 +15 1015.6 952.4
01 16.06 ЮВ 2 н/о н/о +14.2 +11.6 84 +14 +14 1016.6 953.2
02 16.06 СЗ 2 н/о н/о +16.3 +12.4 78 +16 +16 1016.6 953.6
03 16.06 С 3 н/о н/о +17.3 +12.2 72 +17 +17 1017.1 954.3 0.0
04 16.06 С 1 н/о н/о +17.1 +12.2 73 +18 +18 1017.6 954.7
05 16.06 С 1 н/о н/о +17.6 +11.6 68 +19 +19 1017.9 955.1
06 16.06 С 2 15 км 9/9 1000 м
[Sc]
+17.8 +12.0 69 +18 +19 1018.4 955.6 +13.9 +23.1
07 16.06 С 4 н/о н/о +17.7 +11.8 68 +17 +17 1018.8 956.0
08 16.06 С 5 н/о н/о +17.9 +12.0 68 +18 +18 1019.1 956.3
09 16.06 С 7 н/о н/о +18.7 +11.8 64 +19 +19 1019.0 956.4
10 16.06 С 7 н/о н/о +19.9 +11.6 59 +21 +21 комфорт 1018.6 956.2
11 16.06 С 6 н/о н/о +20.1 +11.7 58 +21 +21 комфорт 1018.6 956.3
12 16.06 С 7 18 км 10/10 1000 м
[Sc]
+20.1 +11.0 56 +21 +21 комфорт 1018.5 956.2
13 16.06 С 6 н/о н/о +19.4 +10.7 57 +20 +20 1019.0 956.5
14 16.06 С 5 н/о н/о +18.7 +10.7 60 +19 +19 1019.6 956.9
15 16.06 С 4 н/о н/о +18.4 +10.7 61 +19 +19 1020.2 957.4
16 16.06 В 1 н/о н/о +17.6 +11.3 67 +19 +19 1020.9 957.9
17 16.06 ЮВ 2 н/о н/о +16.7 +12.1 74 +17 +17 1021.3 958.1
18 16.06 Ю 1 н/о н/о +15.5 +11.8 79 +16 +16 1022.0 958.5 +15.1 +20.8
19 16.06 ЮВ 1 н/о н/о +15.4 +12.0 80 +16 +16 1022.1 958.6
20 16.06 ЮВ 1 н/о н/о +14.5 +12.0 85 +15 +15 1022.9 959.2
21 16.06 ЮВ 1 н/о н/о +14.7 +12.5 87 +15 +15 1022.8 959.1 0.0
22 16.06 ЮВ 1 н/о н/о +13.5 +11.4 87 +14 +14 1023.1 959.1
23 16.06 штиль 0 н/о н/о +14.7 +12.0 84 +14 +14 1022.8 959.1
00 17.06 ЮВ 2 н/о н/о +14.1 +12.3 89 +14 +14 1022.4 958.6 0.0
01 17.06 ЮВ 1 н/о н/о +12.6 +11.0 90 +13 +13 1022.6 958.4
02 17.06 штиль 0 н/о н/о +12.6 +11.1 91 +12 +12 1022.7 958.5
03 17.06 ЮВ 1 н/о н/о +11.3 +10.0 92 +11 +11 1023.1 958.6
04 17.06 штиль 0 н/о н/о +11.3 +9.9 91 +11 +11 1023.2 958.7
05 17.06 ЮВ 1 10 км 9/9 600 м
[St]
+13.1 +11.0 87 +13 +13 1022.9 958.8
06 17.06 ЮВ 1 20 км 8/4 1000 м
[Cu hum Ci fib]
+13.7 +10.7 82 +14 +17 1022.3 958.4 +11.2 +16.7
07 17.06 ЮВ 3 н/о н/о +15.4 +11.3 77 +15 +15 1021.4 957.9
08 17.06 ЮВ 2 н/о н/о +17.2 +11.6 70 +18 +18 1020.0 957.0
09 17.06 С 1 н/о н/о +20.5 +11.7 57 +24 +24 комфорт 1018.2 956.0
10 17.06 С 1 н/о н/о +23.0 +11.2 47 +25 +25 комфорт 1016.9 955.3
11 17.06 С 3 н/о н/о +24.1 +11.7 46 +26 +26 жарко 1015.9 954.6
12 17.06 С 4 30 км 8/3 1500 м
[Cu med, cong Ci sp]
+25.1 +11.6 43 +27 +34 жарко 1015.1 954.0
13 17.06 С 5 н/о н/о +25.7 +12.0 42 +27 +27 жарко 1014.5 953.6
14 17.06 С 6 н/о н/о +25.6 +12.9 45 +27 +27 жарко 1013.8 952.9
15 17.06 С 5 н/о н/о +25.1 +13.7 49 +27 +27 жарко 1013.6 952.6
16 17.06 С 4 н/о н/о +25.1 +13.7 49 +27 +27 жарко 1013.5 952.5
17 17.06 СВ 4 н/о н/о +24.4 +14.0 52 +27 +27 жарко 1013.7 952.6
18 17.06 С 4 н/о н/о +23.7 +13.9 54 +26 +26 жарко 1014.0 952.7 +12.9 +26.6
19 17.06 С 1 н/о н/о +22.2 +14.2 60 +25 +25 комфорт 1014.8 953.2
20 17.06 ЮВ 2 н/о н/о +19.8 +13.3 66 +22 +22 комфорт 1016.0 953.8
21 17.06 ЮВ 1 н/о н/о +17.6 +12.9 74 +19 +19 1016.9 954.2
22 17.06 ЮВ 2 н/о н/о +18.0 +12.2 69 +19 +19 1017.1 954.5
23 17.06 ЮВ 2 н/о н/о +16.4 +12.1 76 +17 +17 1017.8 954.8
00 18.06 штиль 0 н/о н/о +15.1 +11.4 79 +15 +15 1018.1 954.8
01 18.06 ЮВ 1 н/о н/о +14.2 +11.6 84 +15 +15 1018.3 954.8
02 18.06 Ю 1 н/о н/о +13.5 +11.3 87 +14 +14 1018.3 954.6
03 18.06 ЮВ 2 н/о н/о +13.6 +11.0 84 +13 +13 1018.1 954.4
04 18.06 ЮВ 2 н/о н/о +13.0 +10.8 86 +12 +12 1018.5 954.7
05 18.06 ЮВ 1 30 км 1/0
[Ci fib]
+12.7 +10.9 89 +13 +15 1018.7 954.8
06 18.06 В 1 н/о н/о +15.4 +11.4 77 +16 +16 1018.0 954.7 +12.3 +23.9
07 18.06 ЮВ 1 н/о н/о +16.3 +11.2 72 +17 +17 1017.3 954.3
08 18.06 ЮВ 2 н/о н/о +19.4 +11.6 61 +21 +21 комфорт 1015.9 953.6
09 18.06 ЮВ 1 н/о н/о +22.3 +10.5 47 +24 +24 комфорт 1014.7 953.0 0.0
10 18.06 штиль 0 н/о н/о +24.8 +9.0 37 +25 +25 комфорт 1013.2 952.1
11 18.06 С 3 н/о н/о +28.2 +10.5 33 +29 +29 жарко 1011.7 951.4
12 18.06 С 5 40 км 4/4 1500 м
[Cu med, cong]
+28.7 +9.9 31 +29 +35 жарко 1011.1 950.9 0.0
13 18.06 С 5 н/о н/о +28.8 +10.1 31 +29 +29 жарко 1010.4 950.3
14 18.06 С 5 н/о н/о +28.9 +9.5 30 +29 +29 жарко 1010.1 950.0
15 18.06 СЗ 5 н/о н/о +29.1 +11.8 34 +30 +30 жарко 1009.9 949.9
17 18.06 ЮВ 3 н/о н/о +24.4 +11.7 45 +26 +26 жарко 1011.5 950.5
18 18.06 Ю 3 н/о ливневой дождь н/о +22.7 +13.7 57 +26 +26 жарко 1012.7 951.3 +15.0 +29.7 0.0
19 18.06 Ю 3 н/о н/о +21.4 +13.9 62 +24 +24 комфорт 1013.3 951.6
20 18.06 ЮВ 3 н/о н/о +19.3 +13.9 71 +21 +21 комфорт 1014.3 952.1
21 18.06 Ю 2 н/о н/о +17.9 +13.1 73 +18 +18 1014.7 952.2
22 18.06 ЮВ 2 н/о н/о +17.3 +12.8 75 +18 +18 1015.0 952.4

 

Местоположение метеостанции Бишофсхофен (Австрия): широта 47.40 долгота 13.22 высота над уровнем моря 548 м.

В архиве по умолчанию представлена погода в Бишофсхофене за последнюю неделю. Архивные данные за месяц целиком и за предыдущие месяцы, начиная с января 2011 года, Вы можете получить, выбрав интересующий диапазон дат из раскрывающегося списка и нажав кнопку "Ввод!".


*Определитесь, кто Вы:
робот инопланетянин человек

Внимание! Время в таблицах - всемирное. Для получения местного времени необходимо прибавить поправку, которая равна 1 ч.

Смотрите также архив погоды в соседних городах и на ближайших метеорологических станциях:

Погода в Санкт-Иоганн-ин-Тироль (Австрия) (9 км)
Погода в Санкт-Файт-им-Понгау (Австрия) (9 км)
Погода в Радштадте (Австрия) (17 км)
Погода в Радштадте (Австрия) (17 км)
Погода в Мария-Альм (Австрия) (24 км)
Погода в Раурисе (Австрия) (26 км)
Погода в Рамзау (Австрия) (31 км)
Погода в Обертауерн (Австрия) (31 км)
Погода в Целль-ам-Зе (Австрия) (33 км)
Погода на Шмиттенхёэ (Австрия) (38 км)

Пояснения к столбцам:

Ветер - указаны скорость ветра в м/с - средняя за 10 мин, порывы в срок и между сроками (в фигурных скобках) и направление, откуда дует ветер: С - северный, СВ - северо-восточный, В - восточный, ЮВ - юго-восточный, Ю - южный, ЮЗ - юго-западный, З - западный, СЗ - северо-западный.
Видимость - горизонтальная дальность видимости в метрах или километрах. При видимости от 1 до 10 км при отсутствии осадков обычно наблюдается дымка, при ухудшении видимости до 1 км и менее - туман. В сухую погоду видимость может ухудшаться дымом, пылью или мглою.
Явления - указаны атмосферные явления, наблюдавшиеся в срок или в последний час перед сроком; фигурными скобками обозначены явления, наблюдавшиеся между сроками (за 1-3 часа до срока); квадратными скобками обозначены град или гололедные отложения с указанием их диаметра в мм.
Облачность - указаны через наклонную черту общая и нижняя облачность в баллах и высота нижней границы облаков в метрах; квадратными скобками обозначены формы облаков: Ci - перистые, Cs - перисто-слоистые, Cc - перисто-кучевые, Ac - высококучевые, As - высокослоистые, Sc - слоисто-кучевые, Ns - слоисто-дождевые, Cu - кучевые, Cb - кучево-дождевые. Подробнее классификацию облаков см. в Атласе облаков (PDF).
T - Температура воздуха - температура, измеренная на высоте 2 м над землей.
Td - Температура точки росы - температура, при понижении до которой содержащийся в воздухе водяной пар достигнет насыщения.
f - Относительная влажность воздуха - влажноcть воздуха, измеренная на высоте 2 м над землей.
Te - Эффективная температура - температура, которую ощущает одетый по сезону человек в тени. Характеристика душности погоды. При расчете учитывается влияние влажности воздуха и скорости ветра на теплоощущения человека.
Tes - Эффективная температура на солнце - температура, которую ощущает человек, с поправкой на солнечный нагрев. Характеристика знойности погоды. Зависит от высоты солнца над горизонтом, облачности и скорости ветра. Ночью, в пасмурную погоду, а также при ветре 12 м/с и более поправка равна нулю.
P - Атмосферное давление - приведенное к уровню моря атмосферное давление.
Po - Атмосферное давление - измеренное на уровне метеостанции атмосферное давление.
Tmin - Минимальная температура - минимум температуры воздуха на высоте 2 м над землей.
Tmax - Максимальная температура - максимум температуры воздуха на высоте 2 м над землей.
R - Количество осадков - Количество выпавших осадков за период времени, мм. При наведении курсора мыши на число - период времени, за который выпало указанное количество осадков.
R24 - Количество осадков - Количество выпавших осадков за 24 часа, мм.
S - Снежный покров - Высота снежного покрова, см. При наведении курсора мыши на число - состояние снежного покрова и степень покрытия местности в баллах.